Consulta los datos en tiempo real de la estación municipal de Les Masies de Roda
| Hora UTC | 09:10 |
|---|---|
| Temperatura | 26.1 ºC |
| Suelo 15 cm | 31.7 ºC |
| Humedad | 55.8 % |
| Presión | 1023.2 hPa |
| Pluja | 0.0 mm |
| Velocidad viento | 1.8 km/h |
| Dirección viento | NE |
| Radiación solar | 52.8 W/m² |
| Temperatura (ºC) | Humedad (%) | Presión (hPa) | Velocidad viento (km/h) | Precipitación (mm) | Radiación solar (W/m²) | ||||||||||||||
|---|---|---|---|---|---|---|---|---|---|---|---|---|---|---|---|---|---|---|---|
| Hora UTC | Aire | Suelo 15 cm | Humedad | Presión | Vel. | Dir. | Vel. Max | Dir. | Intent. máx 5 min. | Rad. Sol. | |||||||||
| 00:05 | 18.6 | 15.7 | 83.4 | 1022.7 | 0.9 | ENE | 0.9 | ENE | 0.0 | 9.3 | |||||||||
| 00:10 | 18.8 | 15.8 | 82.1 | 1022.9 | 2.0 | E | 3.9 | ESE | 0.0 | 5.6 | |||||||||
| 00:15 | 18.8 | 15.8 | 81.2 | 1022.7 | 1.2 | WNW | 3.5 | WNW | 0.0 | 8.9 | |||||||||
| 00:20 | 18.2 | 15.7 | 84.7 | 1022.9 | 0.0 | NNE | 0.0 | WNW | 0.0 | 8.1 | |||||||||
| 00:25 | 18.2 | 15.6 | 85.4 | 1022.8 | 0.0 | NNE | 0.0 | WNW | 0.0 | 6.7 | |||||||||
| 00:30 | 18.2 | 15.5 | 85.4 | 1022.9 | 1.4 | SSE | 3.9 | SE | 0.0 | 5.4 | |||||||||
| 00:35 | 18.4 | 15.5 | 83.7 | 1022.9 | 0.7 | SE | 2.8 | SE | 0.0 | 8.6 | |||||||||
| 00:40 | 18.3 | 15.6 | 83.6 | 1023.0 | 0.8 | ENE | 2.8 | ESE | 0.0 | 6.5 | |||||||||
| 00:45 | 18.0 | 15.5 | 85.4 | 1022.9 | 0.2 | NW | 2.5 | NW | 0.0 | 6.2 | |||||||||
| 00:50 | 17.9 | 15.4 | 85.9 | 1023.0 | 0.0 | NNE | 2.8 | NNE | 0.0 | 54.0 | |||||||||
| 00:55 | 18.1 | 15.4 | 86.3 | 1022.9 | 2.9 | NE | 3.5 | NNE | 0.0 | 195.1 | |||||||||
| 01:00 | 18.3 | 15.6 | 85.8 | 1022.9 | 2.1 | ENE | 4.2 | NE | 0.0 | 188.6 | |||||||||
| 01:05 | 18.1 | 15.4 | 85.2 | 1022.9 | 2.2 | ENE | 3.5 | ENE | 0.0 | 167.4 | |||||||||
| 01:10 | 17.6 | 15.2 | 86.4 | 1022.8 | 0.0 | NNE | 0.0 | ENE | 0.0 | 169.5 | |||||||||
| 01:15 | 17.3 | 15.1 | 87.9 | 1022.9 | 0.0 | NNE | 0.0 | ENE | 0.0 | 161.4 | |||||||||
| 01:20 | 17.2 | 15.0 | 87.9 | 1022.8 | 0.6 | NW | 2.8 | NW | 0.0 | 161.8 | |||||||||
| 01:25 | 17.1 | 14.9 | 89.2 | 1022.9 | 0.0 | NNE | 0.0 | N | 0.0 | 156.3 | |||||||||
| 01:30 | 16.9 | 14.8 | 89.9 | 1022.8 | 1.8 | W | 3.2 | W | 0.0 | 259.6 | |||||||||
| 01:35 | 16.9 | 14.8 | 91.2 | 1022.9 | 0.0 | NNE | 0.0 | W | 0.0 | 264.9 | |||||||||
| 01:40 | 17.1 | 14.8 | 90.9 | 1022.8 | 0.0 | NNE | 0.0 | NNE | 0.0 | 273.2 | |||||||||
| 01:45 | 17.1 | 14.8 | 88.9 | 1023.0 | 0.0 | NNE | 0.0 | NNE | 0.0 | 270.0 | |||||||||
| 01:50 | 17.0 | 14.7 | 90.0 | 1022.8 | 0.0 | NNE | 0.0 | NNE | 0.0 | 274.2 | |||||||||
| 01:55 | 16.9 | 14.5 | 89.9 | 1022.9 | 0.0 | NNE | 0.0 | NNE | 0.0 | 304.7 | |||||||||
| 02:00 | 16.8 | 14.5 | 90.7 | 1022.8 | 0.0 | NNE | 0.0 | ENE | 0.0 | 268.9 | |||||||||
| 02:05 | 16.7 | 14.5 | 91.0 | 1022.9 | 0.0 | NNE | 0.0 | WNW | 0.0 | 266.2 | |||||||||
| 02:10 | 16.7 | 14.5 | 91.1 | 1022.7 | 0.0 | NNE | 0.0 | WNW | 0.0 | 270.2 | |||||||||
| 02:15 | 16.9 | 14.5 | 90.5 | 1022.9 | 0.0 | NNE | 0.0 | NNE | 0.0 | 274.5 | |||||||||
| 02:20 | 16.9 | 14.4 | 90.0 | 1022.8 | 0.0 | NNE | 0.0 | NNE | 0.0 | 288.1 | |||||||||
| 02:25 | 16.7 | 14.4 | 89.9 | 1022.9 | 0.2 | NNE | 2.1 | NNE | 0.0 | 284.1 | |||||||||
| 02:30 | 16.7 | 14.3 | 90.4 | 1022.8 | 0.7 | ENE | 2.1 | ENE | 0.0 | 275.8 | |||||||||
| 02:35 | 16.8 | 14.3 | 89.9 | 1023.0 | 1.3 | NE | 3.2 | ENE | 0.0 | 270.1 | |||||||||
| 02:40 | 16.7 | 14.2 | 89.6 | 1022.8 | 1.7 | ENE | 3.5 | ENE | 0.0 | 282.9 | |||||||||
| 02:45 | 16.5 | 14.2 | 89.6 | 1022.9 | 0.1 | ENE | 1.8 | ENE | 0.0 | 275.1 | |||||||||
| 02:50 | 16.4 | 14.1 | 90.2 | 1022.8 | 0.0 | NNE | 0.0 | ENE | 0.0 | 270.1 | |||||||||
| 02:55 | 16.5 | 14.1 | 90.6 | 1022.9 | 0.0 | NNE | 0.0 | ENE | 0.0 | 264.2 | |||||||||
| 03:00 | 16.3 | 14.0 | 90.1 | 1022.8 | 0.0 | NNE | 0.0 | NNE | 0.0 | 298.1 | |||||||||
| 03:05 | 16.2 | 13.9 | 91.0 | 1022.9 | 0.0 | NNE | 0.0 | NNE | 0.0 | 274.4 | |||||||||
| 03:10 | 16.2 | 13.8 | 91.6 | 1022.8 | 0.0 | NNE | 0.0 | NNE | 0.0 | 279.9 | |||||||||
| 03:15 | 16.3 | 13.8 | 91.8 | 1022.9 | 0.0 | NNE | 0.0 | NNE | 0.0 | 274.5 | |||||||||
| 03:20 | 16.2 | 13.8 | 91.0 | 1022.7 | 0.0 | NNE | 0.0 | NNE | 0.0 | 266.6 | |||||||||
| 03:25 | 16.1 | 13.7 | 92.3 | 1022.8 | 0.0 | NNE | 0.0 | NNE | 0.0 | 285.5 | |||||||||
| 03:30 | 16.1 | 13.7 | 92.0 | 1022.7 | 0.5 | NNE | 2.1 | NNE | 0.0 | 288.8 | |||||||||
| 03:35 | 16.1 | 13.7 | 92.6 | 1022.7 | 0.2 | NNE | 2.1 | NNE | 0.0 | 293.6 | |||||||||
| 03:40 | 16.0 | 13.7 | 92.2 | 1022.5 | 0.0 | NNE | 0.0 | NNE | 0.0 | 293.4 | |||||||||
| 03:45 | 16.0 | 13.7 | 92.2 | 1022.6 | 0.0 | NNE | 0.0 | NNE | 0.0 | 307.4 | |||||||||
| 03:50 | 15.8 | 13.7 | 92.2 | 1022.5 | 0.0 | NNE | 0.0 | NNE | 0.0 | 294.9 | |||||||||
| 03:55 | 15.7 | 13.6 | 92.5 | 1022.7 | 0.0 | NNE | 0.0 | N | 0.0 | 295.8 | |||||||||
| 04:00 | 15.6 | 13.5 | 92.9 | 1022.5 | 0.0 | NNE | 0.0 | N | 0.0 | 304.6 | |||||||||
| 04:05 | 15.5 | 13.3 | 93.1 | 1022.6 | 0.2 | E | 2.1 | E | 0.0 | 306.3 | |||||||||
| 04:10 | 15.4 | 13.3 | 93.6 | 1022.4 | 0.0 | NNE | 0.0 | E | 0.0 | 302.7 | |||||||||
| 04:15 | 15.4 | 13.3 | 93.7 | 1022.5 | 0.4 | E | 2.5 | E | 0.0 | 308.6 | |||||||||
| 04:20 | 15.3 | 13.2 | 94.3 | 1022.3 | 1.2 | WSW | 2.5 | E | 0.0 | 302.0 | |||||||||
| 04:25 | 15.5 | 13.3 | 94.7 | 1022.5 | 0.0 | NNE | 0.0 | WSW | 0.0 | 295.6 | |||||||||
| 04:30 | 15.5 | 13.4 | 94.1 | 1022.3 | 0.0 | NNE | 0.0 | N | 0.0 | 304.2 | |||||||||
| 04:35 | 15.4 | 13.3 | 93.8 | 1022.5 | 0.0 | NNE | 0.0 | N | 0.0 | 317.9 | |||||||||
| 04:40 | 15.5 | 13.3 | 93.7 | 1022.3 | 0.0 | NNE | 0.0 | N | 0.0 | 296.6 | |||||||||
| 04:45 | 15.5 | 13.3 | 93.2 | 1022.5 | 0.6 | N | 2.5 | N | 0.0 | 301.9 | |||||||||
| 04:50 | 15.3 | 13.2 | 93.0 | 1022.4 | 0.1 | N | 1.8 | N | 0.0 | 303.5 | |||||||||
| 04:55 | 15.2 | 13.2 | 93.0 | 1022.6 | 1.8 | NW | 2.8 | WNW | 0.0 | 321.6 | |||||||||
| 05:00 | 15.1 | 13.0 | 93.6 | 1022.5 | 0.0 | NNE | 0.0 | NW | 0.0 | 320.4 | |||||||||
| 05:05 | 15.2 | 12.9 | 94.2 | 1022.6 | 0.0 | NNE | 0.0 | NNE | 0.0 | 315.2 | |||||||||
| 05:10 | 15.3 | 13.0 | 94.5 | 1022.5 | 0.0 | NNE | 0.0 | NNE | 0.0 | 328.0 | |||||||||
| 05:15 | 15.3 | 13.0 | 94.2 | 1022.7 | 2.5 | E | 3.5 | E | 0.0 | 304.7 | |||||||||
| 05:20 | 15.3 | 13.0 | 94.4 | 1022.6 | 2.6 | ENE | 3.9 | ENE | 0.0 | 291.4 | |||||||||
| 05:25 | 15.3 | 13.1 | 93.8 | 1022.8 | 1.2 | NE | 3.2 | NNW | 0.0 | 304.2 | |||||||||
| 05:30 | 15.2 | 13.2 | 93.7 | 1022.8 | 0.6 | N | 2.8 | NW | 0.0 | 303.0 | |||||||||
| 05:35 | 15.1 | 13.2 | 94.1 | 1022.9 | 0.6 | N | 2.5 | N | 0.0 | 313.2 | |||||||||
| 05:40 | 15.0 | 13.2 | 94.3 | 1022.9 | 0.0 | NNE | 0.0 | N | 0.0 | 312.6 | |||||||||
| 05:45 | 15.2 | 13.3 | 94.4 | 1023.0 | 0.0 | NNE | 0.0 | N | 0.0 | 316.0 | |||||||||
| 05:50 | 15.1 | 13.4 | 93.7 | 1023.0 | 0.2 | N | 2.5 | N | 0.0 | 311.2 | |||||||||
| 05:55 | 15.2 | 13.5 | 93.8 | 1022.9 | 2.1 | N | 3.2 | NNW | 0.0 | 321.6 | |||||||||
| 06:00 | 15.3 | 13.6 | 93.8 | 1023.1 | 0.3 | NNW | 2.1 | NNW | 0.0 | 328.3 | |||||||||
| 06:05 | 15.5 | 13.8 | 93.6 | 1023.0 | 0.0 | NNE | 0.0 | NNW | 0.0 | 341.9 | |||||||||
| 06:10 | 15.6 | 14.1 | 93.1 | 1023.1 | 0.0 | NNE | 0.0 | NNW | 0.0 | 363.9 | |||||||||
| 06:15 | 16.0 | 14.5 | 92.7 | 1023.0 | 0.0 | NNE | 0.0 | NNW | 0.0 | 342.1 | |||||||||
| 06:20 | 16.4 | 14.9 | 91.3 | 1023.2 | 0.0 | NNE | 0.0 | NNW | 0.0 | 351.2 | |||||||||
| 06:25 | 16.9 | 15.3 | 90.5 | 1023.2 | 0.0 | NNE | 0.0 | NNW | 0.0 | 357.3 | |||||||||
| 06:30 | 17.1 | 15.8 | 89.8 | 1023.3 | 0.0 | NNE | 0.0 | NNW | 0.0 | 274.1 | |||||||||
| 06:35 | 17.5 | 16.4 | 88.9 | 1023.3 | 0.0 | NNE | 0.0 | NNW | 0.0 | 101.3 | |||||||||
| 06:40 | 18.5 | 16.9 | 84.5 | 1023.3 | 0.0 | NNE | 0.0 | NNW | 0.0 | 8.9 | |||||||||
| 06:45 | 18.9 | 17.2 | 81.7 | 1023.3 | 0.9 | NW | 2.8 | NW | 0.0 | 9.9 | |||||||||
| 06:50 | 18.6 | 17.5 | 82.3 | 1023.3 | 0.3 | NW | 2.1 | NW | 0.0 | 12.1 | |||||||||
| 06:55 | 19.3 | 18.0 | 80.8 | 1023.4 | 0.6 | WSW | 2.5 | WSW | 0.0 | 15.8 | |||||||||
| 07:00 | 19.5 | 18.3 | 78.8 | 1023.2 | 0.7 | WSW | 3.9 | WSW | 0.0 | 19.0 | |||||||||
| 07:05 | 19.5 | 18.9 | 78.3 | 1023.4 | 0.9 | SE | 2.8 | SE | 0.0 | 19.6 | |||||||||
| 07:10 | 19.8 | 19.5 | 77.3 | 1023.2 | 2.2 | SSE | 4.2 | S | 0.0 | 18.4 | |||||||||
| 07:15 | 20.2 | 20.1 | 75.8 | 1023.4 | 1.3 | SW | 4.2 | S | 0.0 | 22.2 | |||||||||
| 07:20 | 20.4 | 20.7 | 76.5 | 1023.3 | 2.1 | WNW | 4.6 | W | 0.0 | 15.5 | |||||||||
| 07:25 | 20.4 | 21.3 | 75.7 | 1023.3 | 0.8 | WNW | 2.5 | WNW | 0.0 | 28.7 | |||||||||
| 07:30 | 20.5 | 21.9 | 75.6 | 1023.3 | 1.6 | SSW | 5.0 | S | 0.0 | 27.6 | |||||||||
| 07:35 | 21.0 | 22.6 | 73.2 | 1023.3 | 1.0 | SSW | 3.9 | WSW | 0.0 | 36.3 | |||||||||
| 07:40 | 21.5 | 23.3 | 71.6 | 1023.4 | 1.8 | WSW | 5.0 | SW | 0.0 | 35.3 | |||||||||
| 07:45 | 21.7 | 23.8 | 72.9 | 1023.2 | 2.7 | WNW | 4.6 | W | 0.0 | 38.3 | |||||||||
| 07:50 | 21.8 | 24.3 | 72.5 | 1023.3 | 2.7 | WSW | 4.2 | WNW | 0.0 | 43.3 | |||||||||
| 07:55 | 22.1 | 24.7 | 69.0 | 1023.2 | 2.8 | ESE | 5.0 | ENE | 0.0 | 46.5 | |||||||||
| 08:00 | 22.3 | 25.1 | 67.9 | 1023.3 | 0.8 | E | 2.8 | E | 0.0 | 48.5 | |||||||||
| 08:05 | 22.7 | 25.4 | 66.7 | 1023.1 | 1.1 | ESE | 3.2 | ESE | 0.0 | 49.6 | |||||||||
| 08:10 | 23.4 | 26.0 | 65.1 | 1023.1 | 3.4 | SW | 5.3 | WSW | 0.0 | 59.5 | |||||||||
| 08:15 | 23.7 | 26.6 | 64.9 | 1023.1 | 2.4 | SW | 5.3 | SW | 0.0 | 39.1 | |||||||||
| 08:20 | 24.2 | 27.1 | 62.9 | 1023.1 | 0.7 | SSW | 3.9 | SSW | 0.0 | 54.6 | |||||||||
| 08:25 | 24.3 | 27.6 | 62.6 | 1023.2 | 2.1 | SSW | 6.7 | SSW | 0.0 | 72.4 | |||||||||
| 08:30 | 24.4 | 28.1 | 63.4 | 1023.1 | 3.5 | W | 5.7 | WNW | 0.0 | 81.0 | |||||||||
| 08:35 | 24.2 | 28.5 | 62.6 | 1023.2 | 0.8 | WNW | 3.9 | W | 0.0 | 49.9 | |||||||||
| 08:40 | 24.5 | 28.9 | 61.1 | 1023.2 | 2.4 | SE | 5.0 | ESE | 0.0 | 45.1 | |||||||||
| 08:45 | 24.7 | 29.3 | 60.8 | 1023.1 | 0.4 | ENE | 2.8 | E | 0.0 | 54.9 | |||||||||
| 08:50 | 25.1 | 30.0 | 59.1 | 1023.3 | 1.0 | NE | 3.9 | NNE | 0.0 | 58.9 | |||||||||
| 08:55 | 25.4 | 30.5 | 58.1 | 1023.2 | 0.7 | N | 3.2 | NE | 0.0 | 59.4 | |||||||||
| 09:00 | 25.7 | 30.9 | 57.8 | 1023.1 | 3.1 | SSE | 5.7 | SSE | 0.0 | 51.1 | |||||||||
| 09:05 | 25.7 | 31.1 | 57.2 | 1023.2 | 1.4 | N | 3.5 | WNW | 0.0 | 48.9 | |||||||||
| 09:10 | 26.1 | 31.7 | 55.8 | 1023.2 | 1.8 | NE | 4.6 | NE | 0.0 | 52.8 | |||||||||
| Máxima | 26.1 | 31.7 | 94.7 | 1023.4 | 3.5 | W | 6.7 | SSW | 0.0 | 363.9 | |||||||||
| Mínima | 15.0 | 12.9 | 55.8 | 1022.3 | |||||||||||||||
| Total | 0.0 | ||||||||||||||||||